OE3WYC-1 Weather Reports


time (UTC)temp
C
wind
direction
speed
KPH
gust
KPH
rain 1hr
cm
rain 24hr
cm
rain mn
cm
humidity
%
barometer
mb
20260507035506 15 289 0.0 19.3 0.00 0.00 0.00 60 1009.0
20260507035008 15 286 3.2 19.3 0.00 0.00 0.00 60 1008.9
20260507034507 15 285 0.0 14.5 0.00 0.00 0.00 60 1008.8
20260507034007 15 272 0.0 9.7 0.00 0.00 0.00 60 1008.7
20260507033506 15 266 0.0 9.7 0.00 0.00 0.00 61 1008.7
20260507032507 15 261 0.0 11.3 0.00 0.00 0.00 61 1008.6
20260507032006 15 270 0.0 12.9 0.00 0.00 0.00 61 1008.5
20260507031507 15 270 0.0 12.9 0.00 0.00 0.00 61 1008.6
20260507031007 15 278 0.0 9.7 0.00 0.00 0.00 61 1008.6
20260507030508 15 279 0.0 9.7 0.00 0.00 0.00 61 1008.4
20260507030007 15 277 0.0 11.3 0.00 0.00 0.00 61 1008.2
20260507025507 16 242 0.0 25.7 0.00 0.00 0.00 62 1008.3
20260507025007 16 232 0.0 25.7 0.00 0.00 0.00 62 1008.2
20260507024507 16 230 0.0 9.7 0.00 0.00 0.00 62 1008.1
20260507024007 16 206 0.0 12.9 0.00 0.00 0.00 62 1008.2
20260507023507 16 231 0.0 12.9 0.00 0.00 0.00 63 1008.3
20260507023007 16 234 0.0 12.9 0.00 0.00 0.00 63 1008.3
20260507022507 16 215 0.0 12.9 0.00 0.00 0.00 63 1008.1
20260507022008 16 206 0.0 12.9 0.00 0.00 0.00 63 1008.2
20260507021506 16 283 0.0 9.7 0.00 0.00 0.00 63 1008.3
20260507020507 16 248 0.0 14.5 0.00 0.00 0.00 63 1008.2
20260507020007 16 229 0.0 14.5 0.00 0.00 0.00 64 1008.1
20260507015508 16 234 0.0 8.0 0.00 0.00 0.00 63 1008.2
20260507015007 16 228 0.0 9.7 0.00 0.00 0.00 63 1008.1
20260507014007 16 260 6.4 8.0 0.00 0.00 0.00 63 1008.1
20260507013506 16 262 0.0 8.0 0.00 0.00 0.00 63 1008.1
20260507012506 16 259 4.8 9.7 0.00 0.00 0.00 63 1007.9
20260507012007 16 245 0.0 9.7 0.00 0.00 0.00 63 1007.7
20260507011507 16 247 0.0 8.0 0.00 0.00 0.00 63 1007.6
20260507010007 16 219 11.3 11.3 0.00 0.00 0.00 63 1007.7
20260507005507 16 221 0.0 11.3 0.00 0.00 0.00 63 1007.5
20260507004506 16 206 0.0 12.9 0.00 0.00 0.00 63 1007.7
20260507004008 16 221 0.0 12.9 0.00 0.00 0.00 63 1007.6
20260507003507 16 221 0.0 12.9 0.00 0.00 0.00 63 1007.6
20260507003006 16 298 0.0 6.4 0.00 0.00 0.00 63 1007.6
20260507002507 17 268 0.0 9.7 0.00 0.00 0.00 63 1007.5
20260507002008 17 271 0.0 17.7 0.00 0.00 0.00 63 1007.5
20260507001507 17 279 0.0 17.7 0.00 0.00 0.00 63 1007.3
20260507001006 17 215 0.0 12.9 0.00 0.00 0.00 63 1007.2
20260506235507 17 208 0.0 6.4 0.00 0.00 0.00 64 1007.0
20260506235007 17 236 0.0 16.1 0.00 0.00 0.00 64 1007.0
20260506234508 17 280 0.0 16.1 0.00 0.00 0.00 65 1007.0
20260506234007 17 251 0.0 22.5 0.00 0.00 0.00 65 1007.2
20260506233507 17 209 0.0 22.5 0.00 0.00 0.00 64 1007.1
20260506233007 17 213 0.0 12.9 0.00 0.00 0.00 64 1006.9
20260506232507 17 233 0.0 12.9 0.00 0.00 0.00 64 1006.9
20260506232009 17 225 0.0 17.7 0.00 0.00 0.00 64 1007.0
20260506231507 17 215 0.0 17.7 0.00 0.00 0.00 63 1006.9
20260506231007 17 214 0.0 16.1 0.00 0.00 0.00 63 1006.9
20260506230507 17 203 0.0 11.3 0.00 0.00 0.00 62 1006.6
20260506225507 17 214 0.0 9.7 0.00 0.00 0.00 62 1006.5
20260506225007 17 208 0.0 9.7 0.00 0.00 0.00 61 1006.5
20260506224507 17 203 0.0 6.4 0.00 0.00 0.00 61 1006.6
20260506224008 17 217 0.0 4.8 0.00 0.00 0.00 62 1006.3
20260506223507 17 209 0.0 16.1 0.00 0.00 0.00 62 1006.3
20260506222506 17 202 0.0 9.7 0.00 0.00 0.00 62 1006.0
20260506222007 17 203 0.0 9.7 0.00 0.00 0.00 62 1005.9
20260506221507 17 203 0.0 9.7 0.00 0.00 0.00 61 1005.6
20260506221009 17 200 0.0 8.0 0.00 0.00 0.00 61 1005.6
20260506220507 17 207 0.0 9.7 0.00 0.00 0.00 61 1005.6
20260506220007 17 209 0.0 9.7 0.00 0.00 0.00 61 1005.4
20260506215506 18 203 0.0 6.4 0.00 0.00 0.00 61 1005.3
20260506214506 18 203 0.0 12.9 0.00 0.00 0.00 61 1005.0
20260506214007 18 199 12.9 12.9 0.00 0.00 0.00 60 1004.9
20260506213507 18 199 0.0 14.5 0.00 0.00 0.00 60 1004.8
20260506213007 18 203 0.0 14.5 0.00 0.00 0.00 60 1005.0
20260506212507 18 202 0.0 9.7 0.00 0.00 0.00 60 1004.8
20260506212007 18 193 0.0 14.5 0.00 0.00 0.00 60 1004.6
20260506211507 18 194 4.8 14.5 0.00 0.00 0.00 60 1004.8
20260506210506 18 192 0.0 12.9 0.00 0.00 0.00 60 1004.5
20260506205006 18 196 4.8 14.5 0.00 0.00 0.00 59 1004.3
20260506204507 18 203 0.0 14.5 0.00 0.00 0.00 59 1004.3
20260506204007 18 205 0.0 11.3 0.00 0.00 0.00 59 1004.2
20260506203006 18 204 9.7 11.3 0.00 0.00 0.00 58 1004.2
20260506202507 19 201 6.4 20.9 0.00 0.00 0.00 58 1004.2
20260506202007 19 199 11.3 20.9 0.00 0.00 0.00 58 1004.0
20260506201007 19 205 4.8 19.3 0.00 0.00 0.00 57 1004.2
20260506200507 19 205 0.0 19.3 0.00 0.00 0.00 57 1004.2
20260506200007 19 201 0.0 14.5 0.00 0.00 0.00 57 1004.2
20260506195007 19 204 0.0 12.9 0.00 0.00 0.00 56 1003.9
20260506194507 20 206 0.0 12.9 0.00 0.00 0.00 56 1003.7
20260506194006 20 203 3.2 14.5 0.00 0.00 0.00 56 1003.7
20260506193508 20 194 1.6 14.5 0.00 0.00 0.00 55 1003.7
20260506193007 20 191 0.0 11.3 0.00 0.00 0.00 55 1003.6
20260506192506 20 198 9.7 12.9 0.00 0.00 0.00 55 1003.6
20260506192007 20 186 0.0 19.3 0.00 0.00 0.00 54 1003.6
20260506191509 20 183 0.0 19.3 0.00 0.00 0.00 54 1003.6
20260506191007 20 195 0.0 14.5 0.00 0.00 0.00 54 1003.5
20260506190506 20 191 0.0 9.7 0.00 0.00 0.00 53 1003.5
20260506190006 20 192 0.0 11.3 0.00 0.00 0.00 53 1003.3
20260506185508 20 198 0.0 11.3 0.00 0.00 0.00 52 1003.3
20260506185007 20 209 0.0 8.0 0.00 0.00 0.00 53 1003.4
20260506184507 20 197 0.0 19.3 0.00 0.00 0.00 52 1003.3
20260506184006 21 198 0.0 19.3 0.00 0.00 0.00 52 1003.1
20260506183507 21 205 8.0 11.3 0.00 0.00 0.00 52 1002.8
20260506183007 21 206 0.0 11.3 0.00 0.00 0.00 51 1002.7
20260506182007 21 206 0.0 14.5 0.00 0.00 0.00 51 1002.8
20260506181508 21 195 0.0 17.7 0.00 0.00 0.00 51 1002.7
20260506181006 21 194 0.0 17.7 0.00 0.00 0.00 50 1002.6
20260506180507 21 195 6.4 11.3 0.00 0.00 0.00 50 1002.6
20260506180008 21 199 0.0 14.5 0.00 0.00 0.00 50 1002.6
20260506174507 22 199 0.0 16.1 0.00 0.00 0.00 50 1002.5
20260506173507 22 204 0.0 20.9 0.00 0.00 0.00 49 1002.4
20260506173007 22 206 0.0 20.9 0.00 0.00 0.00 49 1002.5
20260506172007 22 194 9.7 17.7 0.00 0.00 0.00 48 1002.5
20260506171507 22 201 1.6 17.7 0.00 0.00 0.00 48 1002.5
20260506171007 23 198 0.0 25.7 0.00 0.00 0.00 47 1002.5
20260506170506 23 188 0.0 30.6 0.00 0.00 0.00 47 1002.4
20260506170008 23 193 0.0 30.6 0.00 0.00 0.00 47 1002.3
20260506165006 23 206 8.0 17.7 0.00 0.00 0.00 47 1002.5
20260506164506 23 202 0.0 14.5 0.00 0.00 0.00 46 1002.6
20260506164008 23 203 0.0 19.3 0.00 0.00 0.00 46 1002.6
20260506163006 23 184 4.8 12.9 0.00 0.00 0.00 45 1002.7
20260506162507 23 212 12.9 30.6 0.00 0.00 0.00 46 1002.6
20260506161506 23 197 0.0 14.5 0.00 0.00 0.00 45 1002.8
20260506161006 24 197 0.0 24.1 0.00 0.00 0.00 45 1002.8
20260506160508 24 196 0.0 24.1 0.00 0.00 0.00 45 1002.7
20260506155506 24 203 0.0 20.9 0.00 0.00 0.00 45 1002.7
20260506155007 24 199 0.0 24.1 0.00 0.00 0.00 45 1002.8
20260506154508 24 196 1.6 24.1 0.00 0.00 0.00 44 1002.9
20260506154007 24 196 0.0 32.2 0.00 0.00 0.00 44 1002.9
20260506153506 24 196 0.0 32.2 0.00 0.00 0.00 43 1002.9
20260506153006 24 197 6.4 32.2 0.00 0.00 0.00 43 1002.8
20260506152508 24 199 8.0 32.2 0.00 0.00 0.00 43 1002.8
20260506152007 24 201 0.0 25.7 0.00 0.00 0.00 43 1002.9
20260506151507 24 198 0.0 19.3 0.00 0.00 0.00 43 1002.9
20260506151006 24 201 0.0 20.9 0.00 0.00 0.00 43 1002.8
20260506150508 24 209 0.0 25.7 0.00 0.00 0.00 42 1002.9
20260506150006 25 208 8.0 25.7 0.00 0.00 0.00 42 1002.9
20260506145506 25 205 25.7 25.7 0.00 0.00 0.00 41 1002.9
20260506145007 25 200 0.0 24.1 0.00 0.00 0.00 41 1003.0
20260506144507 25 197 8.0 24.1 0.00 0.00 0.00 41 1003.0
20260506144006 25 188 0.0 19.3 0.00 0.00 0.00 41 1003.0
20260506143507 25 192 0.0 12.9 0.00 0.00 0.00 41 1003.1
20260506143007 25 206 0.0 12.9 0.00 0.00 0.00 41 1003.1
20260506142508 25 189 0.0 17.7 0.00 0.00 0.00 41 1003.1
20260506142007 25 187 0.0 17.7 0.00 0.00 0.00 40 1003.0
20260506141506 25 200 3.2 19.3 0.00 0.00 0.00 40 1003.2
20260506140508 25 187 6.4 17.7 0.00 0.00 0.00 41 1003.4
20260506140006 25 184 0.0 17.7 0.00 0.00 0.00 41 1003.4
20260506135512 25 197 0.0 11.3 0.00 0.00 0.00 41 1003.4
20260506135007 25 200 0.0 16.1 0.00 0.00 0.00 42 1003.5
20260506134508 25 190 0.0 16.1 0.00 0.00 0.00 42 1003.5
20260506134006 25 188 12.9 16.1 0.00 0.00 0.00 42 1003.5
20260506133507 25 193 0.0 16.1 0.00 0.00 0.00 42 1003.5
20260506133006 25 198 0.0 16.1 0.00 0.00 0.00 43 1003.7
20260506132508 25 196 0.0 12.9 0.00 0.00 0.00 43 1003.8
20260506132007 25 204 0.0 14.5 0.00 0.00 0.00 42 1003.8
20260506131506 25 207 0.0 24.1 0.00 0.00 0.00 42 1003.9
20260506131008 25 206 0.0 24.1 0.00 0.00 0.00 42 1004.0
20260506130506 25 212 0.0 9.7 0.00 0.00 0.00 42 1004.2
20260506130007 25 196 0.0 19.3 0.00 0.00 0.00 42 1004.2
20260506125007 25 203 0.0 4.8 0.00 0.00 0.00 43 1004.3
20260506124506 25 199 0.0 12.9 0.00 0.00 0.00 43 1004.3
20260506124006 25 202 0.0 12.9 0.00 0.00 0.00 42 1004.5
20260506123507 25 206 0.0 11.3 0.00 0.00 0.00 42 1004.6
20260506122507 25 187 0.0 8.0 0.00 0.00 0.00 42 1004.6
20260506121506 25 186 0.0 11.3 0.00 0.00 0.00 42 1004.9
20260506120507 25 135 0.0 9.7 0.00 0.00 0.00 42 1005.0
20260506120007 25 203 0.0 9.7 0.00 0.00 0.00 42 1005.1
20260506115506 25 202 8.0 11.3 0.00 0.00 0.00 43 1005.2
20260506115008 25 144 0.0 11.3 0.00 0.00 0.00 42 1005.3
20260506114006 25 193 0.0 9.7 0.00 0.00 0.00 43 1005.2
20260506113007 25 198 0.0 20.9 0.00 0.00 0.00 44 1005.5
20260506112007 25 188 20.9 20.9 0.00 0.00 0.00 46 1005.6
20260506111507 25 174 0.0 12.9 0.00 0.00 0.00 46 1005.6
20260506111007 25 166 0.0 12.9 0.00 0.00 0.00 45 1005.6
20260506110506 25 177 0.0 16.1 0.00 0.00 0.00 45 1005.8
20260506110007 25 185 0.0 24.1 0.00 0.00 0.00 46 1005.9
20260506105506 25 177 0.0 24.1 0.00 0.00 0.00 45 1006.1
20260506105007 25 163 0.0 20.9 0.00 0.00 0.00 45 1006.2
20260506104507 25 201 0.0 19.3 0.00 0.00 0.00 46 1006.1
20260506104006 25 204 0.0 19.3 0.00 0.00 0.00 46 1006.3
20260506103006 25 205 0.0 14.5 0.00 0.00 0.00 47 1006.2
20260506102507 25 204 0.0 14.5 0.00 0.00 0.00 46 1006.3
20260506102007 25 190 0.0 12.9 0.00 0.00 0.00 46 1006.5
20260506101508 25 182 0.0 12.9 0.00 0.00 0.00 46 1006.4
20260506101006 25 203 0.0 4.8 0.00 0.00 0.00 47 1006.6
20260506100007 25 197 0.0 11.3 0.00 0.00 0.00 47 1006.7
20260506095506 25 204 0.0 14.5 0.00 0.00 0.00 48 1006.7
20260506095008 25 204 0.0 14.5 0.00 0.00 0.00 47 1006.8
20260506094506 25 203 0.0 9.7 0.00 0.00 0.00 48 1006.8
20260506094006 25 96 4.8 9.7 0.00 0.00 0.00 49 1006.9
20260506093507 24 98 0.0 9.7 0.00 0.00 0.00 49 1006.9
20260506093007 24 203 0.0 3.2 0.00 0.00 0.00 49 1007.0
20260506092507 24 0 0.0 0.0 0.00 0.00 0.00 49 1007.1
20260506092006 24 0 0.0 0.0 0.00 0.00 0.00 49 1007.0
20260506091007 23 0 0.0 0.0 0.00 0.00 0.00 50 1007.1
20260506090506 23 0 0.0 0.0 0.00 0.00 0.00 51 1007.1
20260506090006 23 0 0.0 0.0 0.00 0.00 0.00 51 1007.0
20260506085506 23 0 0.0 0.0 0.00 0.00 0.00 51 1007.0
20260506085008 23 0 0.0 0.0 0.00 0.00 0.00 51 1007.1
20260506084506 23 0 0.0 0.0 0.00 0.00 0.00 51 1007.0
20260506084007 23 0 0.0 0.0 0.00 0.00 0.00 52 1007.0
20260506083506 23 0 0.0 0.0 0.00 0.00 0.00 52 1007.1
20260506083006 23 0 0.0 0.0 0.00 0.00 0.00 52 1007.1
20260506082507 23 0 0.0 0.0 0.00 0.00 0.00 52 1007.2
20260506082007 22 0 0.0 0.0 0.00 0.00 0.00 52 1007.2
20260506081506 22 203 0.0 8.0 0.00 0.00 0.00 53 1007.3
20260506080506 22 0 0.0 0.0 0.00 0.00 0.00 53 1007.3
20260506073507 21 0 0.0 0.0 0.00 0.00 0.00 54 1007.3
20260506073007 21 0 0.0 0.0 0.00 0.00 0.00 55 1007.4
20260506072506 21 0 0.0 0.0 0.00 0.00 0.00 55 1007.5
20260506072006 21 0 0.0 0.0 0.00 0.00 0.00 55 1007.3
20260506071507 21 0 0.0 0.0 0.00 0.00 0.00 55 1007.4
20260506071007 20 0 0.0 0.0 0.00 0.00 0.00 56 1007.4
20260506070506 20 0 0.0 0.0 0.00 0.00 0.00 56 1007.6
20260506062506 19 0 0.0 0.0 0.00 0.00 0.00 61 1007.8
20260506062007 19 0 0.0 0.0 0.00 0.00 0.00 61 1007.8
20260506061507 18 0 0.0 0.0 0.00 0.00 0.00 61 1007.7
20260506061006 18 0 0.0 0.0 0.00 0.00 0.00 62 1007.8
20260506060506 18 0 0.0 0.0 0.00 0.00 0.00 63 1007.7
20260506051007 17 0 0.0 0.0 0.00 0.00 0.00 67 1007.7
20260506050507 17 0 0.0 0.0 0.00 0.00 0.00 67 1007.7
20260506045006 17 0 0.0 0.0 0.00 0.00 0.00 67 1007.6
20260506044506 17 0 0.0 0.0 0.00 0.00 0.00 68 1007.5
20260506044007 17 0 0.0 0.0 0.00 0.00 0.00 68 1007.6
20260506043507 16 0 0.0 0.0 0.00 0.00 0.00 68 1007.5
20260506042506 16 0 0.0 0.0 0.00 0.00 0.00 67 1007.4
20260506041508 16 0 0.0 0.0 0.00 0.00 0.00 67 1007.4
20260506041006 16 0 0.0 0.0 0.00 0.00 0.00 67 1007.2
20260506040007 16 0 0.0 0.0 0.00 0.00 0.00 67 1007.1